Showing default

OPS 9328 (IDSCS 15), 2655

Orbit data source: Space-Track

OPS 9328 (IDSCS 15), 2655 is a payload satellite owned by USAF SSD (US) in GEO that was launched on Wed, 18 Jan 1967 UTC via a TITAN IIIC launch vehicle from the Air Force Eastern Test Range (AFETR). Payloads include a variety of satellites, spacecraft, and rockets equipped with specific instruments for various scientific and technological missions. These include communications satellites like Starlink; space stations such as the ISS; scientific satellites like the Hubble; Earth observation satellites from companies like Planet Labs, Umbra, and HawkEye 360; GPS; miniature CubeSats for education and research; and military/defense satellites.

Loading next visibility...
OPS 9328 (IDSCS 15) details
Identifier
2655, 1967-003H
Orbit
GEO
Last TLE update2 days ago
Origin
Flag of USUSAF SSD (US)
ManufacturerPhilco-Ford WDL
MissionNon-operational Defense Communications
Bus & MotorIDCSP, Unknown motor
Mass45 kg wet, 45 kg dry
Launch date (UTC)
1967-01-18 (58 years ago)
Launch vehicle
TITAN IIIC
Launch site
Air Force Eastern Test Range (AFETR)
Object type
Payload
Rocket body
Debris
Shape & HBRIco Poly, 0.9 m
Radar Cross Section0.926 m², Medium (>0.1 m² and < 1m²)

Expand to show TLE details & history

TLE from 2 days ago
0 OPS 9328 (IDSCS 15)
1 02655U 67003H   25014.25078677 -.00000068  00000-0  00000-0 0  9993
2 02655   7.0370  52.4372 0072332  24.9060 313.7191  1.07229310133634
Epoch: 2025-01-14T06:01Z
Definitive object data (Epoch: 2025-01-14T06:01:07.976Z)
Latitude-2.63981°
Longitude-173.61481°
Altitude33,742.418 km
Speed3.16 km/s
True Right ascension02h 02m 30s
True Declination-2° 38' 13"
Sunlit
Object was in daylight at TLE epoch
Visualization TLE readout
Latitude-7.02317°
Longitude111.88907°
Altitude34,093.612 km
Speed3.132 km/s
Apparent Right ascension20h 50m 21s
Apparent Declination-14° 06' 26"
Sunlit
Object is in daylight
Visualization observer readout
Local Sidereal Time22:52:05
Azimuth214.173° SW
Elevation29.012°
Doppler factor1
Orbital elements
Apogee altitude34,235.134 km
Perigee altitude33,651.825 km
Semi-major axis40,321.616 km
Eccentricity0.0072332
Inclination7.037°
RAAN52.4372°
Arg. of periapsis24.906°
True anomaly313.11629°
Mean anomaly313.7191°
Eccentric anomaly313.41807°
Mean motion0.26806 °/min
BSTARUnknown
Orbital period1342.97 mins
Loading historical data...
2655 neighbors
Authenticating...
Loading maneuver chart data...
Loading historical data...
Loading historical data...
Loading historical data...
Loading historical data...
Loading historical data...
Loading historical data...
Loading historical data...

OPS 9328 (IDSCS 15) Visibility forecast

Observer location: undefined°, undefined

Span
Click to sort rows by Start time (UTC) header in descending order
Start Az.
Max El. time (UTC)
Max El. Az.
Max El.
End time (UTC)
End Az.
1440 mins2025-01-15 22:10:07.335Z214.163° SW2025-01-16 10:23:07.335Z202.071° SSW37.134°2025-01-16 22:10:07.335Z182.42° SSW
|